Weather in Topki

Russia / Lipetsk Oblast     53°20′11″N   39°35′42″E
В апреле 2022 года жителям России запретили посещать сайт meteo.paraplan.net по решению Генеральной прокуратуры. Аудитория сайта уменьшилась в 10 раз. Владельцы сайта не видят смысла в поддержке погодного сервера в таких условиях. Сайт будет закрыт в октябре.
temp.,
°C
wind,
m/s
gust,
m/s
humid.,
%
clouds,
%
prec.,
mm/h
press.,
hPa
HPBL,
m
25 september, sun
sun2500:00+8ssw71285100 0.3 10031179
03:00+7ssw71190100 2.4 10021159
06:00+7wsw5789100 1.4 1002982
09:00+6wsw4789100 1.6 1003744
12:00+7sw5892100 0.2 1004752
15:00+7wsw61092100 0.6 1005746
18:00+7w61191100 0.1 1006800
21:00+7w61093100 1.5 10071125
26 september, mon
mon2600:00+7w71193100 0.5 1007796
03:00+7w61193100 0.6 1008769
06:00+8w61286100 0.1 1009875
09:00+8w51188100 0.2 1011691
12:00+9w51079100 0.1 1012718
15:00+10wsw5973100 0.2 10121032
18:00+9w497596 0.0 1013408
21:00+9sw3780100 0.0 1014159
27 september, tue
tue2700:00+8sw238390 0.0 101454
03:00+9s228294 0.0 101426
06:00+7sse3488100 0.0 101374
09:00+9sse3483100 0.0 1013260
12:00+12se557789 0.1 1013773
15:00+10ese478891 0.1 1013392
18:00+9ese3791100 0.0 1013335
21:00+9e4890100 0.0 1013347
28 september, wed
wed2800:00+8e51094100 0.0 1012331
03:00+9e5991100 0.0 1011395
06:00+9e51095100 1.0 1010367
09:00+9e61295100 1.4 1008375
12:00+12e61087100 0.8 1007464
15:00+12ese71290100 1.3 1006483
18:00+12ese71297100 3.4 1004442
21:00+12e71596100 5.3 1004674
29 september, thu
thu2900:00+12ese51197100 2.7 1003526
03:00+12se3699100 5.0 1003328
06:00+12w2499100 0.0 1004164
09:00+12wnw3696100 0.0 1006379
12:00+15wnw5677100 0.1 1007859
15:00+13nw5788100 0.1 1010581
18:00+10nnw5793100 0.1 1013554
21:00+8n4694100 0.1 1015447